AAL714 KPHX-KLAX

Flight info

Callsign AAL714
Flight time 1h 7m
Altitude 34000
Route KEENS3 WLVRN ESTWD HLYWD1
Aircraft A320/M-SDE3FGHIRWY/LB1

Departure

Time 2026-04-25 15:43
Airport Phoenix Sky Harbor International Airport (KPHX)

Arrival

Time 2026-04-25 16:51
Airport Los Angeles International Airport (KLAX)
Time Latitude Longitude Altitude Speed Heading
2026-04-25 15:23 33.43758 -111.99882 1168 ft 0 kts 270°
2026-04-25 15:23 33.43758 -111.99881 1168 ft 0 kts 270°
2026-04-25 15:34 33.43758 -111.99864 1173 ft 4 kts 276°
2026-04-25 15:34 33.43751 -111.99836 1169 ft 4 kts 320°
2026-04-25 15:34 33.43739 -111.99829 1172 ft 2 kts 359°
2026-04-25 15:35 33.43738 -111.99829 1171 ft 0 kts
2026-04-25 15:36 33.43740 -111.99829 1172 ft 2 kts
2026-04-25 15:37 33.43773 -111.99829 1170 ft 5 kts
2026-04-25 15:37 33.43819 -111.99829 1167 ft 9 kts
2026-04-25 15:37 33.43896 -111.99848 1169 ft 14 kts 310°
2026-04-25 15:37 33.43905 -111.99980 1167 ft 19 kts 269°
2026-04-25 15:38 33.43903 -112.00163 1167 ft 24 kts 269°
2026-04-25 15:38 33.43902 -112.00347 1167 ft 17 kts 255°
2026-04-25 15:38 33.43798 -112.00381 1168 ft 18 kts 179°
2026-04-25 15:38 33.43661 -112.00382 1169 ft 22 kts 180°
2026-04-25 15:39 33.43492 -112.00382 1168 ft 26 kts 180°
2026-04-25 15:39 33.43308 -112.00383 1168 ft 22 kts 181°
2026-04-25 15:39 33.43215 -112.00438 1172 ft 16 kts 267°
2026-04-25 15:39 33.43215 -112.00581 1168 ft 20 kts 271°
2026-04-25 15:40 33.43214 -112.00766 1168 ft 26 kts 270°
2026-04-25 15:40 33.43215 -112.00921 1170 ft 29 kts 270°
2026-04-25 15:40 33.43215 -112.01229 1166 ft 28 kts 269°
2026-04-25 15:40 33.43214 -112.01467 1169 ft 29 kts 270°
2026-04-25 15:41 33.43215 -112.01711 1168 ft 28 kts 270°
2026-04-25 15:41 33.43215 -112.01942 1169 ft 28 kts 270°
2026-04-25 15:41 33.43216 -112.02176 1166 ft 28 kts 270°
2026-04-25 15:41 33.43215 -112.02409 1169 ft 26 kts 269°
2026-04-25 15:42 33.43215 -112.02581 1169 ft 17 kts 270°
2026-04-25 15:42 33.43183 -112.02697 1156 ft 15 kts 204°
2026-04-25 15:42 33.43107 -112.02625 1159 ft 16 kts 95°
2026-04-25 15:42 33.43107 -112.02552 1162 ft 20 kts 90°
2026-04-25 15:43 33.43106 -112.02044 1164 ft 98 kts 90°
2026-04-25 15:43 33.43106 -112.00976 1170 ft 156 kts 90°
2026-04-25 15:43 33.43112 -111.99640 1741 ft 161 kts 89°
2026-04-25 15:43 33.43163 -111.98292 2435 ft 162 kts 91°
2026-04-25 15:44 33.43226 -111.96929 3041 ft 169 kts 90°
2026-04-25 15:44 33.43280 -111.95450 3474 ft 185 kts 91°
2026-04-25 15:44 33.43320 -111.93840 3863 ft 205 kts 90°
2026-04-25 15:44 33.43358 -111.92029 4228 ft 230 kts 90°
2026-04-25 15:45 33.43402 -111.90056 4890 ft 241 kts 90°
2026-04-25 15:45 33.43307 -111.88056 5767 ft 243 kts 109°
2026-04-25 15:45 33.42443 -111.86366 6592 ft 239 kts 143°
2026-04-25 15:45 33.41548 -111.85601 7121 ft 241 kts 150°
2026-04-25 15:46 33.39627 -111.84124 8215 ft 246 kts 160°
2026-04-25 15:46 33.37991 -111.83751 9079 ft 240 kts 190°
2026-04-25 15:46 33.36459 -111.84427 9975 ft 236 kts 218°
2026-04-25 15:46 33.35419 -111.85911 10794 ft 236 kts 245°
2026-04-25 15:47 33.35113 -111.87839 11631 ft 241 kts 271°
2026-04-25 15:47 33.35293 -111.89811 12497 ft 242 kts 274°
2026-04-25 15:47 33.35489 -111.91816 13372 ft 243 kts 274°
2026-04-25 15:47 33.35684 -111.93868 13890 ft 259 kts 273°
2026-04-25 15:48 33.35889 -111.96107 14136 ft 282 kts 273°
2026-04-25 15:48 33.36111 -111.98533 14351 ft 305 kts 274°
2026-04-25 15:48 33.36352 -112.01104 14861 ft 315 kts 274°
2026-04-25 15:48 33.36654 -112.03716 15562 ft 319 kts 276°
2026-04-25 15:49 33.37034 -112.06353 16288 ft 323 kts 277°
2026-04-25 15:49 33.37453 -112.09006 17021 ft 326 kts 278°
2026-04-25 15:49 33.37883 -112.11677 17749 ft 329 kts 278°
2026-04-25 15:49 33.38311 -112.14377 18430 ft 332 kts 277°
2026-04-25 15:50 33.38731 -112.17101 19036 ft 335 kts 277°
2026-04-25 15:50 33.39146 -112.19852 19680 ft 337 kts 277°
2026-04-25 15:50 33.39557 -112.22621 20318 ft 339 kts 277°
2026-04-25 15:50 33.39967 -112.25415 20960 ft 342 kts 277°
2026-04-25 15:51 33.40379 -112.28223 21594 ft 344 kts 277°
2026-04-25 15:51 33.40652 -112.30093 22010 ft 346 kts 277°
2026-04-25 15:51 33.41209 -112.33905 22846 ft 349 kts 276°
2026-04-25 15:51 33.41631 -112.36779 23490 ft 352 kts 276°
2026-04-25 15:52 33.42055 -112.39668 24018 ft 353 kts 276°
2026-04-25 15:52 33.42480 -112.42569 24547 ft 355 kts 276°
2026-04-25 15:52 33.42903 -112.45481 25066 ft 356 kts 276°
2026-04-25 15:52 33.43328 -112.48405 25576 ft 357 kts 276°
2026-04-25 15:53 33.43752 -112.51344 26069 ft 359 kts 276°
2026-04-25 15:53 33.44176 -112.54293 26565 ft 360 kts 276°
2026-04-25 15:53 33.44595 -112.57215 27037 ft 361 kts 276°
2026-04-25 15:53 33.44984 -112.60227 27505 ft 361 kts 272°
2026-04-25 15:54 33.45064 -112.63196 27958 ft 362 kts 269°
2026-04-25 15:54 33.45105 -112.66208 28412 ft 363 kts 269°
2026-04-25 15:54 33.45144 -112.69242 28856 ft 365 kts 268°
2026-04-25 15:54 33.45180 -112.72282 29286 ft 366 kts 268°
2026-04-25 15:55 33.45217 -112.75342 29709 ft 368 kts 268°
2026-04-25 15:55 33.45315 -112.78409 30082 ft 371 kts 273°
2026-04-25 15:55 33.45844 -112.81463 30388 ft 379 kts 283°
2026-04-25 15:55 33.46827 -112.84418 30705 ft 384 kts 287°
2026-04-25 15:56 33.47879 -112.87362 31027 ft 385 kts 287°
2026-04-25 15:56 33.48925 -112.90321 31333 ft 386 kts 287°
2026-04-25 15:56 33.49963 -112.93287 31668 ft 386 kts 286°
2026-04-25 15:56 33.50995 -112.96253 32110 ft 384 kts 286°
2026-04-25 15:57 33.52017 -112.99195 32570 ft 382 kts 286°
2026-04-25 15:57 33.53035 -113.02122 33012 ft 379 kts 286°
2026-04-25 15:57 33.54046 -113.05028 33487 ft 377 kts 285°
2026-04-25 15:57 33.55054 -113.07926 33774 ft 376 kts 286°
2026-04-25 15:58 33.57031 -113.13579 33837 ft 358 kts 285°
2026-04-25 15:58 33.58932 -113.19037 33837 ft 353 kts 285°
2026-04-25 15:59 33.60792 -113.24435 33827 ft 352 kts 285°
2026-04-25 15:59 33.62676 -113.29900 33833 ft 352 kts 285°
2026-04-25 16:00 33.63919 -113.33490 33835 ft 352 kts 285°
2026-04-25 16:00 33.66430 -113.40752 33825 ft 352 kts 285°
2026-04-25 16:01 33.68287 -113.46148 33939 ft 352 kts 285°
2026-04-25 16:01 33.70161 -113.51584 33936 ft 352 kts 285°
2026-04-25 16:02 33.72028 -113.57027 33928 ft 353 kts 285°
2026-04-25 16:02 33.73898 -113.62478 33915 ft 353 kts 285°
2026-04-25 16:03 33.75764 -113.67931 33804 ft 353 kts 285°
2026-04-25 16:03 33.77625 -113.73386 33804 ft 353 kts 285°
2026-04-25 16:04 33.79485 -113.78843 33804 ft 353 kts 284°
2026-04-25 16:04 33.81348 -113.84309 33806 ft 354 kts 284°
2026-04-25 16:05 33.83214 -113.89780 33812 ft 354 kts 284°
2026-04-25 16:06 33.86003 -113.98013 33815 ft 355 kts 284°
2026-04-25 16:06 33.87865 -114.03508 33808 ft 355 kts 284°
2026-04-25 16:07 33.89724 -114.09007 33796 ft 355 kts 284°
2026-04-25 16:07 33.91090 -114.14643 33797 ft 348 kts 275°
2026-04-25 16:08 33.92055 -114.20360 33798 ft 349 kts 275°
2026-04-25 16:08 33.93023 -114.26083 33798 ft 349 kts 275°
2026-04-25 16:09 33.93992 -114.31810 33798 ft 349 kts 275°
2026-04-25 16:09 33.94958 -114.37549 33796 ft 350 kts 275°
2026-04-25 16:10 33.95925 -114.43286 33802 ft 350 kts 275°
2026-04-25 16:10 33.96890 -114.49034 33821 ft 350 kts 275°
2026-04-25 16:11 33.97853 -114.54795 33815 ft 351 kts 275°
2026-04-25 16:11 33.98816 -114.60566 33808 ft 352 kts 275°
2026-04-25 16:12 33.99774 -114.66308 33805 ft 352 kts 275°
2026-04-25 16:12 34.00729 -114.72092 33814 ft 352 kts 275°
2026-04-25 16:13 34.01681 -114.77871 33817 ft 352 kts 275°
2026-04-25 16:13 34.02636 -114.83650 33818 ft 351 kts 275°
2026-04-25 16:14 34.03591 -114.89422 33806 ft 351 kts 275°
2026-04-25 16:14 34.04536 -114.95196 33807 ft 351 kts 275°
2026-04-25 16:15 34.05475 -115.00974 33809 ft 351 kts 275°
2026-04-25 16:15 34.06416 -115.06747 33824 ft 351 kts 275°
2026-04-25 16:16 34.07357 -115.12529 33837 ft 351 kts 275°
2026-04-25 16:16 34.08293 -115.18309 33826 ft 351 kts 275°
2026-04-25 16:17 34.09229 -115.24086 33818 ft 352 kts 275°
2026-04-25 16:17 34.10161 -115.29841 33823 ft 352 kts 275°
2026-04-25 16:18 34.11092 -115.35635 33819 ft 352 kts 275°
2026-04-25 16:18 34.12021 -115.41432 33823 ft 352 kts 275°
2026-04-25 16:19 34.12947 -115.47240 33822 ft 352 kts 275°
2026-04-25 16:19 34.13873 -115.53048 33830 ft 353 kts 275°
2026-04-25 16:20 34.15255 -115.61763 33821 ft 353 kts 275°
2026-04-25 16:21 34.16225 -115.70495 33840 ft 345 kts 262°
2026-04-25 16:21 34.15686 -115.76231 33841 ft 344 kts 259°
2026-04-25 16:22 34.15130 -115.81965 33866 ft 344 kts 259°
2026-04-25 16:22 34.14576 -115.87703 33870 ft 344 kts 259°
2026-04-25 16:23 34.14020 -115.93446 33886 ft 344 kts 259°
2026-04-25 16:23 34.13455 -115.99188 33906 ft 345 kts 259°
2026-04-25 16:24 34.12985 -116.03964 33911 ft 345 kts 259°
2026-04-25 16:24 34.12422 -116.09720 33913 ft 346 kts 259°
2026-04-25 16:25 34.11861 -116.15484 33914 ft 346 kts 259°
2026-04-25 16:25 34.11290 -116.21269 33175 ft 346 kts 259°
2026-04-25 16:25 34.11005 -116.24129 32759 ft 340 kts 259°
2026-04-25 16:26 34.10724 -116.26935 32284 ft 335 kts 259°
2026-04-25 16:26 34.10446 -116.29713 31883 ft 331 kts 259°
2026-04-25 16:26 34.10165 -116.32468 31512 ft 335 kts 259°
2026-04-25 16:26 34.09864 -116.35278 31134 ft 340 kts 258°
2026-04-25 16:27 34.09556 -116.38114 30757 ft 340 kts 258°
2026-04-25 16:27 34.09248 -116.40939 30374 ft 340 kts 258°
2026-04-25 16:27 34.08942 -116.43758 29997 ft 339 kts 258°
2026-04-25 16:27 34.08638 -116.46570 29577 ft 338 kts 259°
2026-04-25 16:28 34.08336 -116.49374 29198 ft 336 kts 259°
2026-04-25 16:28 34.08034 -116.52163 28825 ft 334 kts 259°
2026-04-25 16:28 34.07737 -116.54937 28453 ft 333 kts 259°
2026-04-25 16:28 34.07442 -116.57695 28075 ft 332 kts 259°
2026-04-25 16:29 34.07151 -116.60455 27706 ft 331 kts 259°
2026-04-25 16:29 34.06886 -116.63209 27359 ft 330 kts 260°
2026-04-25 16:29 34.06637 -116.65953 26985 ft 329 kts 260°
2026-04-25 16:29 34.06392 -116.68691 26616 ft 327 kts 260°
2026-04-25 16:30 34.06147 -116.71415 26252 ft 326 kts 260°
2026-04-25 16:30 34.05902 -116.74122 25889 ft 324 kts 260°
2026-04-25 16:30 34.05654 -116.76826 25540 ft 323 kts 260°
2026-04-25 16:30 34.05404 -116.79512 25175 ft 322 kts 260°
2026-04-25 16:31 34.05151 -116.82186 24822 ft 321 kts 260°
2026-04-25 16:31 34.04901 -116.84818 24455 ft 320 kts 260°
2026-04-25 16:31 34.04649 -116.87475 24125 ft 319 kts 260°
2026-04-25 16:31 34.04386 -116.90124 23734 ft 317 kts 259°
2026-04-25 16:32 34.04071 -116.92751 23256 ft 317 kts 258°
2026-04-25 16:32 34.03726 -116.95363 22801 ft 314 kts 258°
2026-04-25 16:32 34.03371 -116.97957 22372 ft 313 kts 258°
2026-04-25 16:32 34.03020 -117.00537 21960 ft 311 kts 258°
2026-04-25 16:33 34.02673 -117.03109 21536 ft 310 kts 258°
2026-04-25 16:33 34.02344 -117.05675 21113 ft 309 kts 259°
2026-04-25 16:33 34.02036 -117.08234 20692 ft 308 kts 259°
2026-04-25 16:33 34.01740 -117.10788 20267 ft 307 kts 259°
2026-04-25 16:34 34.01449 -117.13330 19866 ft 306 kts 259°
2026-04-25 16:34 34.01154 -117.15872 19447 ft 305 kts 259°
2026-04-25 16:34 34.00855 -117.18404 19032 ft 306 kts 259°
2026-04-25 16:34 34.00551 -117.20942 18680 ft 306 kts 259°
2026-04-25 16:35 34.00245 -117.23491 18260 ft 308 kts 259°
2026-04-25 16:35 33.99937 -117.26038 17823 ft 307 kts 259°
2026-04-25 16:35 33.99631 -117.28573 17507 ft 303 kts 259°
2026-04-25 16:35 33.99330 -117.31087 17031 ft 304 kts 260°
2026-04-25 16:36 33.99034 -117.33584 16815 ft 299 kts 260°
2026-04-25 16:36 33.98940 -117.34388 16699 ft 298 kts 260°
2026-04-25 16:36 33.98455 -117.38507 16068 ft 294 kts 260°
2026-04-25 16:36 33.98168 -117.40942 15708 ft 292 kts 260°
2026-04-25 16:37 33.97886 -117.43348 15359 ft 289 kts 261°
2026-04-25 16:37 33.97606 -117.45737 15005 ft 287 kts 261°
2026-04-25 16:37 33.97424 -117.48125 14666 ft 286 kts 268°
2026-04-25 16:37 33.97644 -117.50501 14328 ft 287 kts 279°
2026-04-25 16:38 33.98183 -117.52817 14070 ft 286 kts 282°
2026-04-25 16:38 33.98730 -117.55103 13822 ft 283 kts 282°
2026-04-25 16:38 33.99270 -117.57380 13553 ft 282 kts 282°
2026-04-25 16:38 33.99803 -117.59640 13254 ft 280 kts 282°
2026-04-25 16:39 34.00333 -117.61895 12959 ft 279 kts 282°
2026-04-25 16:39 34.00862 -117.64142 12635 ft 278 kts 282°
2026-04-25 16:39 34.01387 -117.66376 12275 ft 277 kts 282°
2026-04-25 16:39 34.01892 -117.68607 11888 ft 274 kts 279°
2026-04-25 16:40 34.02072 -117.70877 11495 ft 271 kts 267°
2026-04-25 16:40 34.01887 -117.73128 11068 ft 270 kts 263°
2026-04-25 16:40 34.01662 -117.75370 10678 ft 269 kts 263°
2026-04-25 16:40 34.01443 -117.77601 10302 ft 267 kts 263°
2026-04-25 16:41 34.01226 -117.79834 9769 ft 271 kts 263°
2026-04-25 16:41 34.01078 -117.81349 9262 ft 278 kts 263°
2026-04-25 16:41 34.00581 -117.86462 8309 ft 246 kts 263°
2026-04-25 16:42 34.00387 -117.88452 8017 ft 232 kts 263°
2026-04-25 16:42 34.00200 -117.90366 7742 ft 224 kts 263°
2026-04-25 16:42 34.00019 -117.92211 7467 ft 226 kts 263°
2026-04-25 16:42 33.99833 -117.94099 7187 ft 228 kts 263°
2026-04-25 16:43 33.99647 -117.96006 6909 ft 230 kts 263°
2026-04-25 16:43 33.99459 -117.97935 6626 ft 234 kts 263°
2026-04-25 16:43 33.99267 -117.99894 6342 ft 237 kts 264°
2026-04-25 16:43 33.99073 -118.01864 6008 ft 235 kts 263°
2026-04-25 16:44 33.98875 -118.03781 5737 ft 225 kts 263°
2026-04-25 16:44 33.98687 -118.05634 5565 ft 222 kts 263°
2026-04-25 16:44 33.98504 -118.07478 5443 ft 222 kts 262°
2026-04-25 16:44 33.98320 -118.09324 5187 ft 222 kts 262°
2026-04-25 16:45 33.98136 -118.11172 4900 ft 221 kts 261°
2026-04-25 16:45 33.97954 -118.13003 4591 ft 219 kts 261°
2026-04-25 16:45 33.97772 -118.14824 4294 ft 218 kts 260°
2026-04-25 16:45 33.97594 -118.16612 4008 ft 211 kts 260°
2026-04-25 16:46 33.97424 -118.18309 3766 ft 200 kts 260°
2026-04-25 16:46 33.97259 -118.19957 3473 ft 196 kts 261°
2026-04-25 16:46 33.97097 -118.21563 3213 ft 191 kts 260°
2026-04-25 16:46 33.97045 -118.22078 3135 ft 191 kts 261°
2026-04-25 16:47 33.96783 -118.24687 2709 ft 178 kts 261°
2026-04-25 16:47 33.96639 -118.26122 2505 ft 169 kts 261°
2026-04-25 16:47 33.96496 -118.27517 2237 ft 166 kts 260°
2026-04-25 16:47 33.96358 -118.28886 2045 ft 164 kts 260°
2026-04-25 16:48 33.96226 -118.30230 1805 ft 155 kts 261°
2026-04-25 16:48 33.96107 -118.31459 1570 ft 142 kts 260°
2026-04-25 16:48 33.95997 -118.32599 1341 ft 137 kts 259°
2026-04-25 16:48 33.95881 -118.33726 1175 ft 134 kts 262°
2026-04-25 16:49 33.95768 -118.34842 1029 ft 133 kts 260°
2026-04-25 16:49 33.95645 -118.35936 861 ft 131 kts 259°
2026-04-25 16:49 33.95535 -118.37021 695 ft 129 kts 261°
2026-04-25 16:49 33.95431 -118.38085 489 ft 127 kts 261°
2026-04-25 16:50 33.95318 -118.39137 333 ft 127 kts 261°
2026-04-25 16:50 33.95210 -118.40192 191 ft 127 kts 262°
2026-04-25 16:50 33.95104 -118.41181 123 ft 103 kts 263°
2026-04-25 16:50 33.95035 -118.41906 124 ft 72 kts 264°
2026-04-25 16:51 33.94987 -118.42353 124 ft 35 kts 262°
2026-04-25 16:51 33.94907 -118.42599 125 ft 24 kts 234°
2026-04-25 16:51 33.94786 -118.42740 122 ft 25 kts 217°
2026-04-25 16:51 33.94739 -118.42770 122 ft 22 kts 195°
2026-04-25 16:52 33.94641 -118.42651 126 ft 14 kts 83°
2026-04-25 16:52 33.94653 -118.42541 126 ft 13 kts 83°
2026-04-25 16:52 33.94663 -118.42436 125 ft 14 kts 83°
2026-04-25 16:52 33.94681 -118.42267 126 ft 26 kts 82°
2026-04-25 16:53 33.94684 -118.41914 126 ft 14 kts 152°
2026-04-25 16:53 33.94583 -118.41894 123 ft 16 kts 173°
2026-04-25 16:53 33.94537 -118.41821 123 ft 10 kts 134°
2026-04-25 16:54 33.94463 -118.41790 123 ft 17 kts 173°
2026-04-25 16:54 33.94330 -118.41771 123 ft 21 kts 173°
2026-04-25 16:54 33.94178 -118.41750 124 ft 23 kts 173°
2026-04-25 16:54 33.94012 -118.41724 123 ft 24 kts 173°
2026-04-25 16:55 33.93855 -118.41702 123 ft 20 kts 173°
2026-04-25 16:55 33.93796 -118.41611 123 ft 15 kts 86°
2026-04-25 16:55 33.93811 -118.41479 121 ft 19 kts 83°
2026-04-25 16:55 33.93829 -118.41294 125 ft 24 kts 83°
2026-04-25 16:56 33.93850 -118.41084 126 ft 26 kts 83°
2026-04-25 16:56 33.93869 -118.40894 123 ft 12 kts 82°
2026-04-25 16:56 33.93907 -118.40815 125 ft 11 kts 22°
2026-04-25 16:56 33.93968 -118.40799 123 ft 5 kts 79°
2026-04-25 16:57 33.93974 -118.40762 126 ft 7 kts 74°
2026-04-25 16:57 33.93976 -118.40757 126 ft 1 kts 75°
2026-04-25 16:57 33.93979 -118.40739 126 ft 0 kts 81°
2026-04-25 16:57 33.93979 -118.40733 126 ft 0 kts 81°